Flag for Bangladesh Weather past 2 weeks in Jessore, Bangladesh

Now
52 °F

Clear.


Feels Like: 50 °F
Forecast: 70 / 90 °F
Wind: 6 mph from Southwest

Location: Kunming Airport

Current Time: Mar 1, 2015 at 1:56:28 AM

Latest Report: Mar 1, 2015 at 1:00 AM


Visibility: 10 mi

Pressure: 30.24 "Hg

Humidity: 62%

Dew point: 39 °F

Location of JessoreLocation

Historic Weather in Jessore — Graph

°F

Jessore temperature yesterday

Maximum temperature yesterday: 72 °F (at 1:00 PM)
Minimum temperature yesterday: 52 °F (at 1:00 AM)
Average temperature yesterday: 60 °F

Past Weeks' High & Low Weather Summary

 TemperatureHumidityPressure
High72 °F (Feb 27, 1:00 PM)100% (Feb 14, 4:00 AM)30.27 "Hg (Feb 14, 4:00 AM)
Low37 °F (Feb 16, 5:00 AM)18% (Feb 21, 3:00 PM)29.92 "Hg (Feb 14, 1:00 PM)
Average54 °F50%30.08 "Hg
* Reported Midnight between Feb 13 and Feb 14 — Midnight between Feb 28 and Mar 1, Jessore, Weather by CustomWeather, © 2015

Note: Actual official high and low records may vary slightly from our data, if they occured in-between our weather recording intervals... More about our weather records

Advertising

Jessore weather history for previous 24 hours

 ConditionsComfort  
Time TempWeatherWind HumidityBarometerVisibility
12:00 AM
Sun, Mar 1
54 °FClear.3 mph58%30.24 "Hg10 mi
11:00 PM
Sat, Feb 28
52 °FClear.8 mph62%30.24 "Hg10 mi
10:00 PM55 °FClear.6 mph55%30.24 "Hg10 mi
9:00 PM57 °FClear.8 mph51%30.21 "Hg10 mi
8:00 PM61 °FClear.17 mph45%30.21 "Hg10 mi
7:00 PM63 °FClear.17 mph42%30.18 "Hg10 mi
6:00 PM63 °FClear.17 mph42%30.15 "Hg10 mi
5:00 PM66 °FSunny.20 mph37%30.12 "Hg10 mi
4:00 PM70 °FSunny.22 mph31%30.07 "Hg10 mi
3:00 PM72 °FSunny.22 mph27%30.07 "Hg10 mi
2:00 PM72 °FSunny.20 mph27%30.07 "Hg10 mi
1:00 PM72 °FSunny.22 mph27%30.07 "Hg10 mi
12:00 PM70 °FPassing clouds.22 mph31%30.09 "HgN/A
11:00 AM68 °FSunny.24 mph30%30.15 "Hg10 mi
10:00 AM66 °FSunny.24 mph35%30.15 "Hg10 mi
9:00 AM63 °FSunny.24 mph39%30.18 "Hg10 mi
8:00 AM59 °FSunny.20 mph45%30.18 "Hg10 mi
7:00 AM55 °FSunny.15 mph51%30.18 "Hg10 mi
6:00 AM52 °FSunny.15 mph54%30.15 "Hg10 mi
5:00 AM52 °FClear.15 mph54%30.12 "Hg10 mi
4:00 AM54 °FClear.13 mph51%30.09 "Hg10 mi
3:00 AM52 °FClear.10 mph54%30.09 "Hg10 mi
2:00 AM54 °FClear.15 mph51%30.09 "Hg10 mi
1:00 AM52 °FClear.10 mph58%30.09 "Hg10 mi
Weather by CustomWeather, © 2015

See weather overviewHow to use our weather pages